Terminal Aerodrome Forecast
Issued by NWS

Home | Current Version | Previous Version | Graphics & Text | Print | Product List | Glossary Off
Versions: 1 2 3 4 5 6 7 8 9 10 11 12 13 14 15 16 17 18 19 20 21 22 23 24 25 26 27 28 29 30 31 32 33 34 35 36 37 38 39

000
FTUS43 KDDC 181700 AAA
TAFGCK
TAF AMD
KGCK 181740Z 1818/1918 24012KT P6SM SKC
     FM190300 21010KT P6SM FEW120=

USA.gov is the U.S. government's official web portal to all federal, state and local government web resources and services.